Content
SEND FEEDBACK

Daily
Averages
Monthly
Summary
United States of America

ACHANG BAY, GUAM


Home > North America > United States > Guam
Elevation: 30 feet     Latitude: 13 16N     Longitude: 144 45E

WEATHER
 
SELECT A DAY
Number of Records: 342,166;   Date Range: 1/1/95 - 8/12/14
 
SHARE

PRINT THIS DATA

[ ← Previous Day ]
WEATHER ALMANAC - APRIL 6, 2013
[ Next Day → ]
[ °C ]   °F
Weather ElementAverageHighLow
Temperature79.6 °F84.2 °F (12:16 pm)75.2 °F (5:55 am)
Dewpoint70.9 °F73.4 °F (3:13 pm)68 °F (6:16 am)
Humidity74.6 %83 % (4:24 am)66 % (10:55 am)
Barometer29.81 in29.86 in (8:55 am)29.74 in (4:21 pm)
Wind Speed11.2 mph15 mph (10:55 am)
Wind Gust20.7 mph (12:27 pm)
Weather ElementAverage
Visibility9.8 mi
Wind DirectionENE (81 °)

Weather ElementTotal
Precipitation---
Cooling Degree Days14.7 (Base 65)
Growing Degree Days29.7 (Base 50)
Averaged from 50 records on April 6, 2013
WEATHER CONDITIONS BREAKOUT
WIND DIRECTION BREAKOUT
WEATHER BY HOUR - APRIL 6, 2013
[ °C ]   °F
Local TimeTemperatureDewpointHumidityBarometerVisibilityWind DirectionWind SpeedGust SpeedPrecipitationEventsConditions
12:39 AM77.0 °F69.8 °F78 %29.84 in10.0 miENE (70°)11.5 mphScattered Clouds
12:55 AM76.5 °F69.3 °F78 %29.83 in10.0 miEast (80°)11.5 mphPartly Cloudy
1:19 AM77.0 °F69.8 °F78 %29.83 in10.0 miEast (80°)12.7 mphMostly Cloudy
1:27 AM77.0 °F69.8 °F78 %29.83 in10.0 miENE (60°)11.5 mphScattered Clouds
1:55 AM76.5 °F69.6 °F79 %29.83 in10.0 miEast (80°)11.5 mphClear
2:55 AM76.3 °F69.4 °F79 %29.81 in10.0 miEast (80°)10.4 mphClear
3:55 AM75.7 °F69.4 °F81 %29.80 in10.0 miENE (60°)11.5 mphPartly Cloudy
4:24 AM77.0 °F71.6 °F83 %29.81 in10.0 miNE (50°)10.4 mphMostly Cloudy
4:35 AM77.0 °F69.8 °F78 %29.81 in10.0 miENE (60°)11.5 mphScattered Clouds
4:55 AM75.6 °F69.6 °F82 %29.80 in10.0 miENE (60°)11.5 mphPartly Cloudy
5:55 AM75.2 °F69.4 °F82 %29.81 in10.0 miENE (70°)9.2 mphPartly Cloudy
6:16 AM75.2 °F68.0 °F78 %29.82 in10.0 miENE (60°)12.7 mphRainLight Rain
6:26 AM75.2 °F69.8 °F83 %29.82 in10.0 miENE (70°)10.4 mphClear
6:55 AM76.5 °F69.6 °F79 %29.83 in10.0 miENE (60°)11.5 mph0.00 inClear
7:55 AM79.2 °F70.3 °F74 %29.85 in10.0 miENE (70°)13.8 mphPartly Cloudy
8:55 AM81.3 °F70.9 °F70 %29.86 in10.0 miEast (80°)13.8 mphPartly Cloudy
9:55 AM82.6 °F71.2 °F68 %29.84 in10.0 miENE (70°)13.8 mphPartly Cloudy
10:55 AM83.7 °F71.2 °F66 %29.83 in10.0 miEast (80°)15.0 mphPartly Cloudy
11:55 AM83.3 °F71.4 °F67 %29.81 in10.0 miENE (70°)13.8 mphScattered Clouds
12:16 PM84.2 °F71.6 °F66 %29.81 in10.0 miEast (80°)13.8 mphMostly Cloudy
12:22 PM84.2 °F71.6 °F66 %29.80 in10.0 miENE (70°)13.8 mphScattered Clouds
12:23 PM84.2 °F71.6 °F66 %29.80 in10.0 miENE (70°)12.7 mphMostly Cloudy
12:27 PM84.2 °F71.6 °F66 %29.80 in10.0 miEast (100°)15.0 mph20.7 mphMostly Cloudy
12:36 PM84.2 °F71.6 °F66 %29.80 in10.0 miEast (90°)12.7 mph20.7 mphMostly Cloudy
12:45 PM84.2 °F71.6 °F66 %29.80 in10.0 miEast (90°)12.7 mphMostly Cloudy
12:55 PM83.5 °F72.3 °F69 %29.79 in10.0 miENE (70°)12.7 mphMostly Cloudy
1:55 PM83.7 °F72.1 °F68 %29.76 in10.0 miEast (100°)12.7 mphScattered Clouds
2:54 PM82.4 °F71.6 °F70 %29.75 in10.0 miEast (80°)12.7 mphMostly Cloudy
2:55 PM83.1 °F72.0 °F69 %29.75 in10.0 miEast (90°)12.7 mphMostly Cloudy
3:13 PM84.2 °F73.4 °F70 %29.75 in10.0 miEast (80°)13.8 mphScattered Clouds
3:55 PM83.1 °F71.8 °F68 %29.75 in10.0 miESE (110°)11.5 mphMostly Cloudy
4:21 PM80.6 °F71.6 °F74 %29.74 in10.0 miEast (90°)12.7 mphScattered Clouds
4:55 PM81.1 °F71.2 °F72 %29.75 in10.0 miEast (80°)8.1 mphPartly Cloudy
5:50 PM80.6 °F71.6 °F74 %29.77 in10.0 miEast (90°)8.1 mphMostly Cloudy
5:55 PM80.1 °F72.5 °F78 %29.77 in10.0 miEast (80°)9.2 mphMostly Cloudy
5:58 PM80.6 °F71.6 °F74 %29.77 in10.0 miENE (70°)10.4 mphScattered Clouds
5:59 PM80.6 °F71.6 °F74 %29.77 in10.0 miENE (70°)10.4 mphMostly Cloudy
6:19 PM78.8 °F71.6 °F78 %29.78 in10.0 miEast (80°)11.5 mphMostly Cloudy
6:55 PM77.9 °F70.2 °F77 %29.79 in10.0 miENE (70°)9.2 mphPartly Cloudy
7:55 PM77.5 °F70.7 °F79 %29.81 in10.0 miEast (90°)6.9 mphPartly Cloudy
8:55 PM77.9 °F71.1 °F79 %29.82 in10.0 miEast (100°)9.2 mphPartly Cloudy
9:47 PM78.8 °F71.6 °F78 %29.83 in10.0 miEast (90°)9.2 mphMostly Cloudy
9:49 PM78.8 °F71.6 °F78 %29.83 in10.0 miEast (90°)10.4 mphMostly Cloudy
9:51 PM78.8 °F71.6 °F78 %29.83 in10.0 miEast (100°)8.1 mphMostly Cloudy
9:54 PM78.8 °F69.8 °F74 %29.83 in10.0 miEast (100°)10.4 mphMostly Cloudy
9:55 PM77.9 °F70.3 °F77 %29.83 in10.0 miESE (110°)9.2 mphMostly Cloudy
10:05 PM78.8 °F69.8 °F74 %29.84 in10.0 miESE (110°)9.2 mphMostly Cloudy
10:55 PM77.5 °F70.2 °F78 %29.84 in10.0 miEast (90°)8.1 mphPartly Cloudy
11:33 PM77.0 °F71.6 °F83 %29.83 in6.2 miEast (100°)8.1 mphScattered Clouds
11:55 PM77.0 °F69.8 °F78 %29.83 in6.2 miEast (100°)6.9 mphScattered Clouds
Hourly data recorded from PGUA, located miles away from Achang Bay, Guam







STORIES FROM OUR PARTNERS